SCP
0 0 0 0 0 0 0 0 0 0 0 0 0 0 0 1 1 1 1 2 2 1 1 1 1 1 1 2 2 3 3 3 3 2 2 2 1 1 1 1 1 1 1 1
0 0 0 0 0 0 0 0 0 0 0 0 0 0 0 1 1 1 1 2 2 1 1 1 2 1 2 2 2 2 3 3 3 2 2 2 1 1 1 1 1 1 1 1
0 0 0 0 0 0 0 0 0 0 0 0 0 0 0 1 1 1 2 2 2 1 1 2 2 2 2 2 2 2 3 3 3 3 3 3 2 1 1 1 1 1 1 2
0 0 0 0 0 0 0 0 0 0 1 0 0 0 0 1 1 1 2 2 2 2 2 2 3 3 2 2 2 2 3 3 4 4 5 4 3 2 2 2 2 2 2 2
0 0 0 0 0 0 1 1 1 1 1 0 0 0 0 1 1 1 2 2 2 2 2 2 3 3 3 2 2 2 3 4 4 5 6 6 4 2 2 2 3 2 2 2
0 0 0 0 0 1 1 1 0 0 1 1 0 0 1 1 1 1 2 2 2 2 2 3 4 4 4 3 3 3 4 4 4 5 6 6 4 3 3 3 3 3 3 3
0 0 0 0 1 1 1 1 0 0 1 0 0 0 1 2 2 2 2 2 2 3 4 5 5 5 5 4 4 4 5 6 5 5 6 7 5 4 3 3 3 3 3 3
0 0 0 0 1 1 1 0 0 0 0 0 0 1 1 2 2 2 2 2 3 4 5 6 5 5 5 5 4 4 5 7 6 5 6 6 5 4 4 4 4 4 3 3
0 0 0 0 0 0 0 0 0 0 0 0 0 1 1 2 2 2 2 3 4 4 4 4 4 5 6 5 3 3 4 6 6 5 5 5 5 4 4 4 5 5 4 4
0 0 0 0 0 0 0 0 0 0 0 0 0 0 1 2 2 2 2 4 4 4 3 3 4 5 5 4 4 4 5 5 6 5 5 4 4 4 4 5 5 5 5 5
0 0 0 0 0 0 0 0 0 0 0 0 0 0 1 2 2 2 3 4 4 3 3 3 4 5 5 5 5 6 6 6 6 5 4 4 3 3 3 4 4 4 4 4
0 0 0 0 0 0 0 0 0 0 0 0 0 1 1 2 2 3 3 3 3 3 3 4 5 6 6 7 7 7 7 6 5 5 4 4 3 2 3 3 3 4 4 4
0 0 0 0 0 0 0 0 0 0 0 0 0 1 1 2 3 2 2 2 3 3 4 5 5 6 6 7 7 6 6 6 5 5 5 5 4 4 3 4 4 5 6 7
0 0 0 0 0 0 0 0 0 0 0 0 0 1 1 2 2 2 2 2 2 3 3 4 5 5 5 6 5 5 6 7 8 8 8 7 7 6 6 6 6 7 8 8
0 0 0 0 0 0 0 0 0 0 0 0 0 1 1 2 2 2 2 2 2 2 3 4 5 5 6 5 4 4 6 8 10 11 11 10 9 8 8 8 9 9 9 8
0 0 0 0 0 0 0 0 0 0 0 0 1 1 2 2 3 3 2 2 2 2 3 5 6 6 6 5 4 4 5 7 10 12 12 11 9 9 9 9 10 10 9 8
1 1 0 0 0 0 0 0 0 1 1 1 1 1 2 3 4 3 3 2 2 3 4 5 7 8 7 6 5 4 5 6 8 10 11 11 10 9 8 8 9 10 9 8
1 1 1 0 0 0 1 1 1 1 1 1 1 1 2 4 5 4 3 2 3 4 5 7 8 9 9 7 6 5 5 5 6 7 10 11 11 9 7 7 8 8 7 7
1 1 1 1 0 1 1 1 1 1 1 1 1 1 2 4 4 4 3 2 3 4 6 7 9 9 8 7 6 6 6 5 5 5 7 8 9 8 7 7 8 8 8 8
0 0 1 1 1 1 1 1 1 1 1 1 1 1 2 3 3 3 3 4 5 6 7 8 9 9 8 7 6 6 6 5 5 5 5 6 6 7 7 8 9 11 11 10
0 0 0 0 0 1 1 1 1 1 1 1 1 2 2 3 3 4 5 6 8 10 10 9 9 9 9 8 7 7 6 6 5 4 4 4 5 5 6 7 10 13 14 14
0 0 0 0 1 1 1 1 1 2 2 2 2 2 3 4 6 6 7 8 10 11 11 10 9 9 9 9 9 8 8 7 5 4 4 4 4 4 5 6 8 11 14 16
1 1 1 1 1 1 1 2 2 2 2 2 2 2 4 6 8 9 8 8 9 9 9 8 8 8 9 9 8 8 8 8 6 5 4 4 4 4 5 6 6 8 11 12
1 1 1 2 1 1 1 2 2 2 2 2 2 3 5 7 10 10 9 8 7 7 7 7 7 7 7 7 7 6 6 6 5 4 4 3 3 4 5 5 5 6 7 8
1 2 2 2 2 2 2 2 2 2 3 2 2 3 5 7 9 9 8 7 7 7 7 7 6 5 4 5 5 4 4 3 3 3 2 2 3 4 5 5 5 4 4 4
1 1 2 2 2 2 2 2 2 3 2 2 2 3 4 7 9 8 8 7 6 7 7 7 6 4 3 3 3 3 2 2 2 2 2 2 3 4 5 5 5 3 3 4
Wind_Speed
10 11 12 10 11 8 6 8 6 3 4 7 8 7 6 9 10 10 11 11 12 11 11 11 12 12 11 11 10 10 9 8 7 6 6 5 5 4 4 4 5 5 4 4
11 14 10 7 8 8 9 9 8 4 3 6 6 7 6 9 11 10 11 11 11 11 12 12 12 12 12 12 11 10 10 9 9 6 5 4 4 4 4 3 4 5 5 5
16 9 7 9 10 11 11 10 8 5 4 7 7 8 8 8 9 9 10 10 11 12 13 13 13 13 12 12 12 10 10 10 9 8 6 5 4 4 4 4 4 5 5 5
14 10 9 11 12 12 10 7 7 8 9 7 8 8 6 8 9 10 10 11 11 12 12 13 13 13 13 12 12 11 11 10 9 9 8 8 6 6 5 4 4 5 5 5
11 10 12 13 11 10 7 3 6 9 10 10 9 10 6 7 8 9 10 11 11 11 12 13 13 13 12 12 11 11 11 10 10 9 9 9 7 6 5 5 5 5 5 5
9 7 9 10 8 7 5 5 6 9 11 13 10 11 7 6 6 5 7 9 10 11 11 12 12 12 11 11 11 11 11 10 10 10 10 9 8 7 6 6 5 5 4 4
12 11 9 8 9 9 10 10 8 10 11 10 6 9 6 2 4 4 4 5 8 10 10 11 13 13 12 13 12 12 12 11 10 11 10 10 9 9 8 7 6 6 4 4
15 14 13 10 11 10 12 14 11 10 10 8 8 9 4 2 2 3 3 3 6 8 9 11 12 12 12 12 13 13 13 12 11 10 10 9 9 8 7 7 6 6 4 4
10 11 9 10 10 11 12 12 11 12 12 11 8 7 6 5 5 4 4 4 4 6 8 10 11 11 11 12 12 13 12 11 11 10 9 8 8 7 6 5 6 5 4 4
8 8 9 9 10 9 10 9 9 11 11 12 11 11 8 7 7 5 3 3 3 5 7 8 8 9 10 11 11 11 11 11 10 10 9 7 8 7 7 6 5 5 4 4
10 10 10 11 12 11 11 11 10 10 11 12 11 6 1 4 4 3 2 1 1 3 5 6 7 8 8 9 10 10 10 10 9 9 8 7 7 7 7 6 6 5 5 5
8 10 11 12 8 7 11 12 13 11 11 11 12 6 3 2 2 2 1 1 1 2 3 4 5 7 7 8 8 9 9 9 9 8 8 7 7 7 7 7 6 6 6 6
6 8 11 12 12 11 12 13 13 13 11 11 13 7 5 4 3 2 1 0 1 2 2 3 4 6 6 7 7 8 8 9 9 9 8 8 8 7 7 7 6 6 6 6
6 10 12 13 8 8 12 13 14 15 13 13 14 11 6 6 5 4 2 1 1 2 2 3 4 5 5 6 6 6 7 7 8 8 8 8 8 7 7 6 6 6 6 6
7 12 13 13 10 10 12 13 14 17 16 16 13 12 9 7 5 4 3 2 2 2 3 3 3 4 5 5 5 6 6 6 7 8 8 8 7 7 6 5 5 5 5 6
6 9 10 13 13 13 14 14 15 16 16 16 15 12 6 5 4 4 4 3 3 3 3 3 3 4 5 5 5 5 5 6 6 7 7 6 6 7 6 6 6 5 5 5
7 8 10 12 11 13 17 15 15 15 14 13 14 9 5 6 6 6 5 4 3 3 3 3 3 3 4 5 5 6 6 6 6 7 7 7 7 7 6 6 5 5 5 5
8 9 8 10 10 17 8 5 9 12 11 11 9 6 6 5 4 4 4 4 3 3 3 3 3 3 4 4 5 5 5 6 6 6 6 6 6 6 5 5 5 5 4 4
10 10 9 10 14 13 8 7 7 10 10 9 9 7 6 4 4 5 4 3 3 2 2 2 2 3 3 4 5 5 5 5 6 5 5 5 5 5 6 6 5 5 4 4
11 10 11 11 13 13 5 5 4 8 10 5 6 7 6 7 7 4 4 3 2 2 2 2 2 3 3 3 4 4 5 5 5 4 4 4 4 4 5 5 4 4 4 3
12 12 14 14 13 9 1 4 6 10 3 2 4 6 7 7 4 2 4 3 3 2 3 3 2 3 3 3 4 3 3 3 3 3 3 3 3 4 4 4 3 3 3 3
10 10 12 11 14 9 2 5 6 2 2 1 2 3 4 2 1 3 4 4 4 3 3 3 3 3 3 3 3 3 2 2 2 3 3 3 3 2 3 3 3 3 3 3
8 7 5 7 5 1 1 3 3 3 3 2 2 2 3 3 3 4 4 4 3 3 3 3 3 3 3 2 2 2 2 2 2 2 3 2 2 2 2 2 3 3 3 3
6 5 7 7 5 4 3 2 2 3 4 4 3 2 3 3 3 3 3 3 3 3 3 3 4 4 3 2 2 2 2 2 3 3 2 3 3 2 2 1 2 2 2 2
5 5 7 8 6 5 4 3 3 3 3 3 2 2 3 3 3 3 3 3 2 3 3 3 3 3 3 2 2 3 2 2 3 3 2 2 2 2 2 1 0 1 1 2
8 8 8 7 5 6 5 4 4 4 3 2 2 2 3 3 3 3 3 2 2 3 3 3 3 3 3 2 2 2 2 2 2 2 2 1 1 1 1 1 1 2 1 2
Wind_Direction
198 219 220 216 229 253 254 249 237 220 175 218 232 234 202 186 199 198 193 193 194 198 190 187 189 189 187 186 187 189 191 181 186 185 189 187 187 191 189 185 179 188 200 196
204 223 227 227 226 232 234 240 236 208 187 237 247 245 223 196 205 207 202 198 199 198 191 188 192 192 192 191 192 191 193 190 194 188 194 196 196 194 190 195 179 193 199 207
220 217 207 212 214 221 228 238 238 229 201 221 249 240 217 203 205 211 212 206 201 200 194 189 192 196 195 194 194 196 194 192 196 190 191 190 189 207 191 191 191 198 201 206
226 214 202 214 219 227 229 229 241 235 235 229 237 260 212 203 201 209 213 211 206 201 197 191 191 195 197 196 193 194 192 193 193 193 197 197 200 202 196 195 185 189 199 207
212 210 212 222 225 232 241 229 235 242 248 254 230 257 236 195 215 212 211 212 209 203 200 195 193 193 195 193 191 189 190 193 192 196 195 201 205 203 195 195 183 199 195 206
220 207 225 230 225 224 197 202 217 237 247 246 241 251 250 209 225 223 205 206 207 203 201 198 193 189 190 189 190 187 185 190 192 197 199 204 205 206 203 202 195 201 194 195
209 206 210 219 206 191 204 219 223 226 228 239 219 242 249 222 229 240 232 203 199 199 197 194 192 189 189 189 189 186 183 188 191 196 201 202 206 207 209 210 207 213 202 193
207 203 198 206 220 214 215 231 239 249 250 235 204 236 226 209 227 236 228 202 190 192 193 191 190 190 190 190 190 188 186 188 190 196 201 203 205 212 210 209 214 208 217 209
220 208 187 204 220 229 218 229 249 260 265 266 236 226 219 207 215 214 204 187 187 192 191 189 188 189 189 191 191 190 187 189 190 193 196 200 203 210 213 206 214 214 211 208
237 223 193 190 204 216 242 232 230 243 251 254 245 239 232 208 214 202 196 183 185 190 190 188 187 189 191 190 187 188 187 189 190 189 193 193 197 199 205 212 213 216 212 214
241 231 202 195 212 208 201 216 232 242 252 258 257 243 221 208 206 210 191 143 155 180 181 182 185 185 185 185 182 181 182 184 186 189 190 195 194 197 201 204 206 208 210 207
227 239 227 214 208 241 227 225 224 235 239 249 267 260 109 169 189 210 217 84 93 125 151 164 170 171 173 175 177 178 181 183 183 185 189 190 191 197 202 202 204 206 210 212
212 235 227 213 200 206 223 226 232 241 248 247 253 246 142 167 192 201 227 65 96 112 128 147 157 163 167 170 172 177 184 186 185 184 187 190 194 201 206 205 204 206 209 213
245 241 244 245 239 214 219 222 227 236 243 246 248 258 218 213 217 216 212 179 139 129 123 140 149 158 159 164 170 177 184 185 183 183 188 190 196 200 204 206 205 208 211 214
238 240 244 255 259 249 241 232 227 235 248 258 260 257 252 238 231 219 211 192 171 154 145 138 149 154 159 166 173 180 182 181 184 183 187 189 190 191 195 197 201 205 212 216
239 250 245 244 242 242 245 239 234 237 243 250 257 258 248 231 216 208 208 199 185 178 163 150 149 161 167 173 178 181 183 182 182 186 188 185 187 189 191 191 197 201 208 215
230 235 241 242 234 239 239 234 235 237 240 247 250 247 207 211 216 218 210 205 194 194 182 168 164 170 174 179 182 184 186 184 184 187 188 186 188 190 192 195 198 203 208 212
237 238 242 245 230 237 241 220 238 240 241 244 247 230 216 220 217 223 224 213 199 194 183 173 176 172 173 178 177 181 180 182 186 186 187 187 189 188 189 195 199 204 209 215
229 230 239 240 235 239 229 210 220 232 238 236 231 221 208 190 212 213 201 199 187 176 167 168 171 165 164 171 170 176 182 182 184 181 183 185 189 192 193 198 200 204 211 217
209 221 236 236 245 244 225 171 211 240 236 212 216 212 197 201 230 192 148 149 142 150 154 159 155 153 160 160 164 172 177 178 181 179 181 183 190 195 195 193 196 202 208 217
200 208 225 235 242 245 175 156 200 230 223 136 209 212 212 228 286 92 142 147 140 139 146 147 152 152 149 154 155 162 163 176 177 172 177 182 186 197 192 185 187 197 205 214
221 216 218 231 240 235 141 205 228 311 19 206 220 218 220 225 133 141 141 143 144 144 148 147 142 130 130 142 152 158 162 164 175 178 174 171 175 193 171 174 185 197 206 213
238 253 247 240 247 26 293 277 304 301 283 274 258 246 215 191 177 163 157 153 150 150 145 138 129 121 120 135 152 158 159 165 172 173 167 162 165 172 170 186 195 204 214 230
223 249 249 245 238 247 261 283 297 292 284 276 265 243 219 208 178 165 164 155 147 142 141 140 132 126 122 123 129 133 141 157 164 168 168 167 165 166 153 206 212 215 226 238
267 244 243 244 245 258 248 272 289 297 291 268 250 237 217 190 174 171 158 151 151 147 143 145 137 132 125 118 115 117 132 158 161 159 170 179 167 141 142 139 10 265 344 329
246 250 252 254 250 259 260 270 271 263 263 243 216 215 201 187 177 165 155 153 152 145 139 136 133 132 126 120 110 108 124 151 170 171 170 172 160 144 160 145 129 64 25 38